Belgrade, MT

5:34 PM MDT on July 25, 2016 (GMT -0600)
Gallatin

Weather History for KBZN - February, 2013

Change the Weather History Date:

Friday, February 15, 2013

  Actual Average Record
Temperature  
Mean Temperature 30 °F 27 °F  
Max Temperature 40 °F 39 °F 54 °F (1991)
Min Temperature 19 °F 15 °F -37 °F (1936)
Degree Days  
Heating Degree Days 35 38  
Month to date heating degree days 578 588  
Since 1 July heating degree days 5213 5110  
Cooling Degree Days 0 0  
Month to date cooling degree days 0 0  
Year to date cooling degree days 0 0  
Moisture  
Dew Point 19 °F    
Average Humidity 61    
Maximum Humidity 77    
Minimum Humidity 44    
Precipitation  
Precipitation 0.00 in 0.01 in 0.20 in (1940)
Month to date precipitation T 0.20  
Year to date precipitation 0.24 0.68  
Snow  
Snow 0.00 in 0.10 in 1.50 in (1942)
Month to date snowfall T 2.4  
Since 1 July snowfall 16.9 19.8  
Snow Depth 5.00 in    
Sea Level Pressure  
Sea Level Pressure 30.43 in    
Wind  
Wind Speed 5 mph (SE)    
Max Wind Speed 10 mph    
Max Gust Speed 13 mph    
Visibility 10 miles    
Events      
T = Trace of Precipitation, MM = Missing Value Source: NWS Daily Summary

Daily Weather History Graph

Daily Weather History Graph

Search for Another Location

Airport or City:

Trip Planner

Search our weather history database for the weather conditions in past years. The results will help you decide how hot, cold, wet, or windy it might be!

Date:

Astronomy

Feb. 15, 2013 Rise Set
Actual Time 7:26 AM MST 5:51 PM MST
Civil Twilight 6:55 AM MST 6:22 PM MST
Nautical Twilight 6:20 AM MST 6:57 PM MST
Astronomical Twilight 5:46 AM MST 7:31 PM MST
Moon 9:44 AM MST (2/15) No Moon Set
Length of Visible Light 11h 26m
Length of Day
10h 25m
Waxing Crescent, 31% of the Moon is Illuminated
Feb 15
Waxing Crescent
Feb 17
First Quarter
Feb 25
Full
Mar 4
Last Quarter
Mar 11
New

Hourly Weather History & Observations

Time (MST) Temp. Windchill Dew Point Humidity Pressure Visibility Wind Dir Wind Speed Gust Speed Precip Events Conditions
12:56 AM 32.0 °F 24.8 °F 21.0 °F 64% 30.45 in 10.0 mi NNW 8.1 mph - N/A   Overcast
1:56 AM 32.0 °F 28.7 °F 19.0 °F 59% 30.45 in 10.0 mi SW 3.5 mph - N/A   Overcast
2:56 AM 30.9 °F 24.3 °F 19.9 °F 64% 30.45 in 10.0 mi WNW 6.9 mph - N/A   Overcast
3:56 AM 27.0 °F 23.0 °F 19.0 °F 72% 30.47 in 10.0 mi NNW 3.5 mph - N/A   Mostly Cloudy
4:56 AM 27.0 °F 23.0 °F 18.0 °F 69% 30.48 in 10.0 mi ESE 3.5 mph - N/A   Mostly Cloudy
5:56 AM 28.0 °F - 19.0 °F 69% 30.49 in 10.0 mi Calm Calm - N/A   Overcast
6:56 AM 27.0 °F 18.7 °F 19.0 °F 72% 30.51 in 10.0 mi SSE 8.1 mph - N/A   Overcast
7:56 AM 27.0 °F 19.5 °F 18.0 °F 69% 30.51 in 10.0 mi South 6.9 mph - N/A   Overcast
8:56 AM 27.0 °F 21.6 °F 18.0 °F 69% 30.53 in 10.0 mi South 4.6 mph - N/A   Mostly Cloudy
9:56 AM 30.0 °F - 19.0 °F 64% 30.52 in 10.0 mi Calm Calm - N/A   Clear
10:56 AM 34.0 °F 29.8 °F 19.9 °F 56% 30.49 in 10.0 mi East 4.6 mph - N/A   Clear
11:56 AM 39.0 °F - 19.0 °F 45% 30.44 in 10.0 mi Calm Calm - N/A   Clear
12:04 PM 39.2 °F - 17.6 °F 42% 30.37 in 1.8 mi Calm Calm - N/A   Haze
12:16 PM 37.4 °F 32.8 °F 17.6 °F 45% 30.36 in 10.0 mi ENE 5.8 mph - N/A   Clear
12:56 PM 37.0 °F 30.4 °F 19.9 °F 50% 30.43 in 10.0 mi East 9.2 mph - N/A   Clear
1:56 PM 37.9 °F 32.1 °F 19.9 °F 48% 30.40 in 10.0 mi East 8.1 mph - N/A   Clear
2:56 PM 37.9 °F 32.1 °F 21.0 °F 51% 30.39 in 10.0 mi SE 8.1 mph - N/A   Clear
3:56 PM 37.9 °F 33.5 °F 23.0 °F 55% 30.39 in 10.0 mi SE 5.8 mph - N/A   Clear
4:56 PM 36.0 °F 29.6 °F 23.0 °F 59% 30.38 in 10.0 mi East 8.1 mph - N/A   Clear
5:56 PM 36.0 °F 33.3 °F 19.9 °F 52% 30.37 in 10.0 mi Variable 3.5 mph - N/A   Clear
6:56 PM 33.1 °F 26.9 °F 19.9 °F 59% 30.38 in 10.0 mi SSW 6.9 mph - N/A   Clear
7:56 PM 27.0 °F 21.6 °F 19.0 °F 72% 30.40 in 10.0 mi NNW 4.6 mph - N/A   Clear
8:56 PM 30.0 °F - 19.9 °F 66% 30.38 in 10.0 mi Calm Calm - N/A   Clear
9:56 PM 28.0 °F - 19.9 °F 72% 30.37 in 10.0 mi Calm Calm - N/A   Clear
10:56 PM 19.0 °F 13.9 °F 14.0 °F 81% 30.38 in 10.0 mi SSE 3.5 mph - N/A   Clear
11:56 PM 23.0 °F 14.7 °F 17.1 °F 78% 30.35 in 10.0 mi SE 6.9 mph - N/A   Clear